Home > Weather > Fort Liard > Past weeks

Flag for Canada Past Weather in Fort Liard, Northwest Territories, Canada — Yesterday and Last 2 Weeks

Now
45 °F

Light rain. Overcast.


Feels Like: 38 °F
Forecast: 40 / 49 °F
Wind: 14 mph from Northwest

Location: Fort Nelson

Current Time: May 28, 2016 at 4:05:04 AM

Latest Report: May 28, 2016 at 3:00 AM


Visibility: 15 mi

Pressure: 30.05 "Hg

Humidity: 93%

Dew Point: 43 °F

Location of Fort LiardLocation

Past Weather in Fort Liard — Graph

°F

Fort Liard Temperature Yesterday

Maximum temperature yesterday: 52 °F (at 12:00 AM)
Minimum temperature yesterday: 45 °F (at 4:00 AM)
Average temperature yesterday: 46 °F

High & Low Weather Summary for the Past Weeks

 TemperatureHumidityPressure
High79 °F (May 23, 4:00 PM)100% (May 19, 5:00 AM)30.47 "Hg (May 19, 5:00 AM)
Low30 °F (May 21, 6:00 AM)14% (May 15, 4:00 PM)29.59 "Hg (May 23, 7:00 PM)
Average53 °F61%29.99 "Hg
* Reported May 13 3:00 AM — May 28 3:00 AM, Fort Liard, Weather by CustomWeather, © 2016

Note: Actual official high and low records may vary slightly from our data, if they occured in-between our weather recording intervals... More about our weather records

Advertising

Fort Liard Weather History for the Previous 24 Hours

Scroll right to see more
 ConditionsComfort  
Time TempWeatherWind HumidityBarometerVisibility
3:00 AM
Sat, May 28
45 °FLight rain. Overcast.14 mph93%30.05 "Hg15 mi
2:00 AM45 °FLight rain. Overcast.12 mph93%30.06 "Hg5 mi
1:00 AM45 °FLight rain. Overcast.8 mph93%30.07 "Hg3 mi
12:00 AM45 °FLight rain. Overcast.8 mph93%30.08 "Hg3 mi
11:00 PM
Fri, May 27
45 °FLight rain. Mostly cloudy.10 mph93%30.09 "Hg3 mi
10:00 PM45 °FLight rain. More clouds than sun.12 mph93%30.08 "Hg5 mi
9:00 PM45 °FLight rain. More clouds than sun.10 mph93%30.08 "Hg7 mi
8:00 PM45 °FLight rain. Overcast.9 mph93%30.08 "Hg10 mi
7:00 PM45 °FLight rain. Overcast.10 mph93%30.09 "Hg7 mi
6:00 PM45 °FLight rain. Overcast.12 mph93%30.09 "Hg5 mi
5:00 PM45 °FLight rain. Overcast.12 mph93%30.08 "Hg5 mi
4:00 PM46 °FLight rain. Overcast.13 mph82%30.06 "Hg9 mi
3:00 PM46 °FLight rain. Overcast.12 mph87%30.06 "Hg9 mi
2:52 PM46 °FDrizzle. Fog.13 mph87%30.05 "Hg10 mi
2:00 PM46 °FLight rain. Mostly cloudy.14 mph82%30.05 "Hg15 mi
1:00 PM45 °FLight rain. Mostly cloudy.13 mph87%30.05 "Hg15 mi
12:00 PM46 °FLight rain. Mostly cloudy.14 mph82%30.03 "Hg15 mi
11:00 AM45 °FLight rain. Fog.10 mph93%30.02 "Hg5 mi
10:00 AM45 °FLight rain. Mostly cloudy.10 mph87%30.02 "Hg5 mi
9:00 AM46 °FMostly cloudy.10 mph82%30.01 "Hg15 mi
8:00 AM46 °FMore clouds than sun.14 mph82%30.01 "Hg15 mi
7:00 AM45 °FOvercast.9 mph87%30.00 "Hg15 mi
6:00 AM45 °FPassing clouds.9 mph87%29.99 "Hg15 mi
5:00 AM45 °FPartly cloudy.8 mph87%29.99 "Hg15 mi
4:00 AM45 °FPartly cloudy.10 mph87%29.99 "Hg15 mi
Weather by CustomWeather, © 2016

See weather overviewHow to use our weather pages